Location: Marsån
(66.4167°N, 22.2833°E)
Time: 07:21:48
(UTC+00:00)

Cosmos 2360 Rocket - Pass Details

Date: 24 February 2024
Orbit: 833 x 845 km, 71.0° (Epoch: 20 April)

Event Time Altitude Azimuth Distance (km) Brightness Sun altitude
Rises 16:51:14 0° 303° (WNW) 3,393 6.3 -9.4°
Reaches altitude 10° 16:53:41 10° 305° (NW) 2,457 5.5 -9.6°
Maximum altitude 16:59:21 84° 34° (NNE) 850 2.2 -10.2°
Drops below altitude 10° 17:05:00 10° 123° (ESE) 2,454 4.1 -10.8°
Enters shadow 17:05:17 - 124° (ESE) 2,562 4.2 -10.8°
